Location: East Guldeford
(50.9500°N, 0.7500°E)
Time: 18:20:38
(UTC+00:00)

ALOS 2 - Pass Details

Date: 12 May 2021
Orbit: 630 x 632 km, 97.9° (Epoch: 16 June)

Event Time Altitude Azimuth Distance (km) Brightness Sun altitude
Exits shadow 23:01:49 44° 137° (SE) 883 2.9 -19.8°
Maximum altitude 23:03:05 67° 72° (ENE) 689 2.7 -19.8°
Drops below altitude 10° 23:07:28 10° 351° (N) 2,027 6.4 -19.9°
Sets 23:09:41 0° 348° (NNW) 2,940 7.7 -20.0°
